This is the latest recevied weather packets stored in our database for station/object KC9DNQ-3. If no packets are shown the sender has not sent any weather packets the latest 10 day(s).
| Time | Temp. | Humidity | Pressure | Rain* | Wind** | Luminosity | Snow |
|---|---|---|---|---|---|---|---|
| 1777641911 | 6.67° C | 86% | 1015.7 hPa | 0 mm | - | 127 W/m² | - |
| 1777641611 | 6.67° C | 85% | 1015.8 hPa | 0 mm | - | 93 W/m² | - |
| 1777641312 | 6.67° C | 84% | 1015.8 hPa | 0 mm | - | 91 W/m² | - |
| 1777641011 | 7.22° C | 84% | 1015.4 hPa | 0 mm | - | 93 W/m² | - |
| 1777640710 | 7.22° C | 85% | 1015.4 hPa | 0 mm | - | 95 W/m² | - |
| 1777640410 | 7.22° C | 86% | 1015.4 hPa | 0 mm | - | 93 W/m² | - |
| 1777640110 | 7.22° C | 86% | 1015.4 hPa | 0 mm | - | 163 W/m² | - |
| 1777639810 | 7.22° C | 88% | 1015.3 hPa | 0 mm | - | 301 W/m² | - |
| 1777639511 | 7.22° C | 88% | 1015.3 hPa | 0 mm | - | 218 W/m² | - |
| 1777639210 | 6.67° C | 89% | 1015.3 hPa | 0 mm | - | 214 W/m² | - |
| 1777638912 | 6.67° C | 88% | 1015.1 hPa | 0 mm | - | 135 W/m² | - |
| 1777638611 | 6.67° C | 89% | 1015.1 hPa | 0 mm | - | 109 W/m² | - |
| 1777638311 | 6.11° C | 90% | 1015.1 hPa | 0 mm | - | 120 W/m² | - |
| 1777638010 | 6.11° C | 90% | 1014.9 hPa | 0 mm | - | 95 W/m² | - |
| 1777637710 | 6.11° C | 91% | 1014.9 hPa | 0 mm | - | 98 W/m² | - |
| 1777637410 | 6.11° C | 91% | 1014.8 hPa | 0 mm | - | 63 W/m² | - |
| 1777637110 | 5.56° C | 91% | 1014.8 hPa | 0 mm | - | 69 W/m² | - |
| 1777636811 | 5.56° C | 92% | 1014.8 hPa | 0 mm | - | 33 W/m² | - |
| 1777636510 | 5.56° C | 91% | 1014.8 hPa | 0 mm | - | 47 W/m² | - |
| 1777636211 | 5.56° C | 91% | 1014.8 hPa | 0 mm | - | 40 W/m² | - |
| 1777635910 | 5.56° C | 91% | 1014.6 hPa | 0 mm | - | 44 W/m² | - |
| 1777635610 | 5.56° C | 91% | 1014.6 hPa | 0 mm | - | 25 W/m² | - |
| 1777635310 | 5.56° C | 91% | 1014.5 hPa | 0 mm | - | 21 W/m² | - |
| 1777635010 | 5.56° C | 92% | 1014.5 hPa | 0 mm | - | 18 W/m² | - |
| 1777634710 | 5.56° C | 92% | 1014.5 hPa | 0 mm | - | 12 W/m² | - |
* Rain latest hour (hover to see other rain measurements)
** Current wind speed in m/s (hover to see current wind gust speed)